Flag for Brazil Weather past 2 weeks in Recife, Pernambuco, Brazil

Now
81 °F

Passing clouds.


Feels Like: 85 °F
Forecast: 78 / 85 °F
Wind: 6 mph from East

Location: Recife Aeroporto


UV Index: 10 (Very high)

Visibility: N/A


Pressure: 29.89 "Hg

Humidity: 79%

Dew point: 73 °F

Location of RecifeLocation

Historic Weather in Recife

°F

Recife temperature yesterday

Maximum temperature yesterday: 86 °F (at 11:00 AM)
Minimum temperature yesterday: 79 °F (at 6:00 AM)
Average temperature yesterday: 83 °F

Past Weeks' High & Low Weather Summary

 TemperatureHumidityPressure
High88 °F (Apr 6, 12:00 PM)100% (Apr 4, 4:00 AM)29.98 "Hg (Apr 4, 4:00 AM)
Low75 °F (Apr 4, 4:00 AM)62% (Apr 2, 1:00 PM)29.83 "Hg (Apr 2, 2:00 PM)
Average82 °F80%29.89 "Hg
* Reported Apr 1 11:00 PM — Apr 16 11:00 PM, Recife, Weather by CustomWeather, © 2014

Note: Actual official high and low records may vary slightly from our data, if they occured in-between our weather recording intervals... More about our weather records

Advertising

Historic Weather Conditions — Data for Previous 24 hours

 ConditionsComfort  
Time TempWeatherWind HumidityBarometerVisibility
11:00 PM
Apr 16
81 °FPassing clouds.7 mph79%29.89 "HgN/A
10:00 PM82 °FPassing clouds.12 mph74%29.89 "HgN/A
9:00 PM82 °FPassing clouds.10 mph74%29.89 "HgN/A
8:00 PM82 °FPassing clouds.9 mph74%29.89 "HgN/A
7:00 PM82 °FPassing clouds.10 mph74%29.86 "HgN/A
6:00 PM82 °FPassing clouds.8 mph74%29.86 "HgN/A
5:00 PM82 °FScattered clouds.9 mph74%29.86 "HgN/A
4:00 PM82 °FScattered clouds.13 mph79%29.83 "HgN/A
3:00 PM84 °FScattered clouds.14 mph70%29.83 "HgN/A
2:00 PM86 °FScattered clouds.12 mph66%29.86 "HgN/A
1:00 PM86 °FPassing clouds.12 mph66%29.86 "HgN/A
12:00 PM84 °FScattered clouds.9 mph66%29.89 "HgN/A
11:00 AM86 °FScattered showers. Scattered clouds.12 mph66%N/AN/A
10:00 AM84 °FScattered clouds.12 mph70%29.92 "HgN/A
9:00 AM84 °FScattered clouds.9 mph74%29.92 "HgN/A
8:00 AM84 °FScattered clouds.12 mph70%29.89 "HgN/A
7:00 AM82 °FScattered clouds.10 mph74%29.86 "HgN/A
6:00 AM79 °FScattered clouds.3 mph84%29.86 "HgN/A
5:00 AM81 °FPassing clouds.7 mph79%29.83 "HgN/A
4:00 AM81 °FPassing clouds.7 mph79%29.83 "HgN/A
3:00 AM81 °FPassing clouds.8 mph79%29.83 "HgN/A
2:00 AM81 °FPassing clouds.9 mph79%29.83 "HgN/A
1:00 AM82 °FPassing clouds.8 mph74%29.83 "HgN/A
12:00 AM82 °FPassing clouds.8 mph74%29.86 "HgN/A
Weather by CustomWeather, © 2014

See weather overview